This is the latest recevied weather packets stored in our database for station/object CE3TL-WX. If no packets are shown the sender has not sent any weather packets the latest 10 day(s).
| Time | Temp. | Humidity | Pressure | Rain* | Wind** | Luminosity | Snow |
|---|---|---|---|---|---|---|---|
| 1778090689 | 13.33° C | 84% | 1026 hPa | - | - | - | - |
| 1778090155 | 13.33° C | 83% | 1026 hPa | - | - | - | - |
| 1778089621 | 13.89° C | 82% | 1026.1 hPa | - | - | - | - |
| 1778089088 | 13.89° C | 78% | 1025.6 hPa | - | - | - | - |
| 1778088554 | 13.89° C | 78% | 1025.8 hPa | - | - | - | - |
| 1778088020 | 13.89° C | 78% | 1025.8 hPa | - | - | - | - |
| 1778087486 | 13.89° C | 76% | 1025.8 hPa | - | - | - | - |
| 1778086952 | 15° C | 69% | 1025.7 hPa | - | - | - | - |
| 1778086418 | 14.44° C | 69% | 1025.8 hPa | - | - | - | - |
| 1778085885 | 15° C | 67% | 1025.3 hPa | - | - | - | - |
| 1778085351 | 15.56° C | 62% | 1025.2 hPa | - | - | - | - |
| 1778084817 | 16.11° C | 57% | 1024.8 hPa | - | - | - | - |
| 1778084284 | 16.67° C | 55% | 1024.4 hPa | - | - | - | - |
| 1778083750 | 16.67° C | 52% | 1024.3 hPa | - | - | - | - |
| 1778083216 | 16.67° C | 51% | 1024.3 hPa | - | - | - | - |
| 1778082682 | 17.22° C | 51% | 1024.1 hPa | - | - | - | - |
| 1778082147 | 17.22° C | 51% | 1024 hPa | - | - | - | - |
| 1778081613 | 17.78° C | 49% | 1024.1 hPa | - | - | - | - |
| 1778081078 | 16.67° C | 52% | 1024.3 hPa | - | - | - | - |
| 1778080543 | 16.67° C | 53% | 1024.4 hPa | - | - | - | - |
| 1778080010 | 16.67° C | 48% | 1024 hPa | - | - | - | - |
| 1778079475 | 16.67° C | 55% | 1024 hPa | - | - | - | - |
| 1778078942 | 16.67° C | 55% | 1024 hPa | - | - | - | - |
| 1778078408 | 16.11° C | 58% | 1023.9 hPa | - | - | - | - |
| 1778077874 | 15.56° C | 60% | 1023.8 hPa | - | - | - | - |
* Rain since midnight (hover to see other rain measurements)
** Current wind speed in m/s (hover to see current wind gust speed)